Weather History for Hyannis, MA

Change the Weather History Date:

Sunday, December 2, 2012

  Actual Average Record
Temperature  
Mean Temperature 50 °F -  
Max Temperature 55 °F 45 °F 59 °F (2006)
Min Temperature 46 °F 31 °F 11 °F (1989)
Degree Days  
Heating Degree Days 14    
Moisture  
Dew Point 48 °F    
Average Humidity 91    
Maximum Humidity 97    
Minimum Humidity 83    
Precipitation  
Precipitation 0.05 in - - ()
Sea Level Pressure  
Sea Level Pressure 30.28 in    
Wind  
Wind Speed 8 mph (SSE)    
Max Wind Speed 18 mph    
Max Gust Speed 26 mph    
Visibility 10 miles    
Events Rain    
Averages and records for this station are not official NWS values.
T = Trace of Precipitation, MM = Missing Value Source: NWS Daily Summary

Daily Weather History Graph

Daily Weather History Graph

Search for Another Location

Airport:

Trip Planner

Search our weather history database for the weather conditions in past years. The results will help you decide how hot, cold, wet, or windy it might be!

Date:

Astronomy

Dec. 02, 2012 Rise Set
Actual Time 6:50 AM EST 4:11 PM EST
Civil Twilight 6:19 AM EST 4:42 PM EST
Nautical Twilight 5:44 AM EST 5:16 PM EST
Astronomical Twilight 5:10 AM EST 5:50 PM EST
Moon 7:57 PM EST (12/2) 9:36 AM EST (12/2)
Length of Visible Light 10h 23m
Length of Day
9h 21m
Waning Gibbous, 86% of the Moon is Illuminated
Dec 2
Waning Gibbous
Dec 6
Last Quarter
Dec 13
New
Dec 20
First Quarter
Dec 28
Full

Hourly Weather History & Observations

Time (EST) Temp. Dew Point Humidity Pressure Visibility Wind Dir Wind Speed Gust Speed Precip Events Conditions
1:56 AM 48.0 °F 44.1 °F 86% 30.44 in 10.0 mi ESE 8.1 mph - 0.00 in Rain Light Rain
2:56 AM 46.9 °F 45.0 °F 93% 30.42 in 10.0 mi ESE 3.5 mph - 0.01 in Rain Light Rain
3:56 AM 48.0 °F 46.0 °F 93% 30.40 in 10.0 mi ESE 6.9 mph - 0.00 in   Overcast
4:56 AM 48.0 °F 46.0 °F 93% 30.40 in 10.0 mi ESE 5.8 mph - 0.01 in   Overcast
5:08 AM 48.2 °F 46.4 °F 93% 30.39 in 10.0 mi ESE 6.9 mph - N/A   Overcast
5:20 AM 48.2 °F 46.4 °F 93% 30.39 in 10.0 mi SE 6.9 mph - N/A   Overcast
5:36 AM 48.2 °F 46.4 °F 93% 30.38 in 10.0 mi SE 6.9 mph - N/A   Overcast
5:56 AM 48.9 °F 46.9 °F 93% 30.38 in 10.0 mi SE 8.1 mph - N/A   Overcast
6:56 AM 50.0 °F 46.9 °F 89% 30.37 in 10.0 mi SSE 10.4 mph 16.1 mph N/A   Overcast
7:16 AM 50.0 °F 46.4 °F 87% 30.36 in 10.0 mi SSE 8.1 mph - N/A   Overcast
7:24 AM 50.0 °F 46.4 °F 87% 30.36 in 10.0 mi SSE 9.2 mph 17.3 mph N/A   Mostly Cloudy
7:56 AM 50.0 °F 46.9 °F 89% 30.36 in 10.0 mi SSE 10.4 mph 16.1 mph N/A   Scattered Clouds
8:56 AM 51.1 °F 48.0 °F 89% 30.35 in 10.0 mi SSE 10.4 mph 19.6 mph 0.00 in   Overcast
9:56 AM 52.0 °F 48.9 °F 89% 30.34 in 10.0 mi South 10.4 mph 18.4 mph 0.03 in   Overcast
10:16 AM 51.8 °F 48.2 °F 88% 30.33 in 10.0 mi South 9.2 mph - N/A   Mostly Cloudy
11:56 AM 53.1 °F 50.0 °F 89% 30.28 in 10.0 mi South 9.2 mph - N/A   Mostly Cloudy
12:56 PM 52.0 °F 48.9 °F 89% 30.25 in 10.0 mi Calm Calm - N/A   Overcast
2:56 PM 52.0 °F 48.9 °F 89% 30.19 in 10.0 mi South 5.8 mph - N/A   Mostly Cloudy
3:56 PM 55.0 °F 52.0 °F 89% 30.17 in 10.0 mi South 16.1 mph 26.5 mph N/A   Scattered Clouds
4:56 PM 52.0 °F 50.0 °F 93% 30.17 in 10.0 mi South 15.0 mph - 0.00 in   Overcast
4:58 PM 51.8 °F 50.0 °F 94% 30.16 in 10.0 mi SSW 12.7 mph - N/A   Overcast
5:56 PM 52.0 °F 51.1 °F 97% 30.16 in 10.0 mi SSW 10.4 mph - N/A   Scattered Clouds
6:56 PM 51.1 °F 48.9 °F 92% 30.14 in 10.0 mi SSW 10.4 mph - N/A   Mostly Cloudy
7:56 PM 51.1 °F 46.0 °F 83% 30.13 in 10.0 mi SW 18.4 mph - N/A   Mostly Cloudy
8:56 PM 51.1 °F 46.9 °F 86% 30.13 in 10.0 mi SSW 13.8 mph - N/A   Clear
9:56 PM 50.0 °F 48.0 °F 93% 30.12 in 10.0 mi SSW 9.2 mph - N/A   Clear
10:56 PM 50.0 °F 48.9 °F 96% 30.11 in 10.0 mi South 6.9 mph - 0.00 in   Overcast
11:56 PM 51.1 °F 48.9 °F 92% 30.08 in 10.0 mi SSW 11.5 mph - 0.00 in   Mostly Cloudy